This is the latest recevied weather packets stored in our database for station/object KD8FRE. If no packets are shown the sender has not sent any weather packets the latest 10 day(s).
| Time | Temp. | Humidity | Pressure | Rain* | Wind** | Luminosity | Snow |
|---|---|---|---|---|---|---|---|
| 1777922301 | 22.78° C | 28% | 1001.3 hPa | 0 mm | - | 111 W/m² | - |
| 1777921998 | 23.33° C | 28% | 1001.3 hPa | 0 mm | - | 106 W/m² | - |
| 1777921694 | 22.78° C | 28% | 1001.5 hPa | 0 mm | - | 101 W/m² | - |
| 1777921390 | 23.33° C | 28% | 1001.5 hPa | 0 mm | - | 496 W/m² | - |
| 1777921087 | 22.78° C | 28% | 1001.5 hPa | 0 mm | - | 424 W/m² | - |
| 1777920784 | 23.33° C | 26% | 1001.5 hPa | 0 mm | - | 498 W/m² | - |
| 1777920480 | 23.33° C | 27% | 1001.7 hPa | 0 mm | - | 516 W/m² | - |
| 1777920176 | 22.78° C | 30% | 1001.8 hPa | 0 mm | - | 671 W/m² | - |
| 1777919871 | 22.78° C | 29% | 1001.9 hPa | 0 mm | - | 322 W/m² | - |
| 1777919568 | 22.78° C | 28% | 1001.8 hPa | 0 mm | - | 685 W/m² | - |
| 1777919267 | 22.78° C | 29% | 1001.9 hPa | 0 mm | - | 559 W/m² | - |
| 1777918963 | 22.78° C | 28% | 1001.8 hPa | 0 mm | - | 482 W/m² | - |
| 1777918661 | 22.78° C | 27% | 1002 hPa | 0 mm | - | 462 W/m² | - |
| 1777918359 | 22.22° C | 30% | 1001.9 hPa | 0 mm | - | 648 W/m² | - |
| 1777918057 | 22.78° C | 28% | 1002.2 hPa | 0 mm | - | 417 W/m² | - |
| 1777917756 | 22.78° C | 31% | 1002 hPa | 0 mm | - | 686 W/m² | - |
| 1777917453 | 22.22° C | 29% | 1002.1 hPa | 0 mm | - | 105 W/m² | - |
| 1777917150 | 22.78° C | 28% | 1002.3 hPa | 0 mm | - | 583 W/m² | - |
| 1777916847 | 22.78° C | 29% | 1002 hPa | 0 mm | - | 693 W/m² | - |
| 1777916545 | 22.22° C | 28% | 1002.3 hPa | 0 mm | - | 630 W/m² | - |
| 1777916241 | 22.22° C | 29% | 1002.4 hPa | 0 mm | - | 429 W/m² | - |
| 1777915939 | 22.22° C | 30% | 1002.5 hPa | 0 mm | - | 690 W/m² | - |
| 1777915635 | 21.67° C | 30% | 1002.7 hPa | 0 mm | - | 743 W/m² | - |
| 1777915331 | 22.22° C | 28% | 1002.7 hPa | 0 mm | - | 645 W/m² | - |
| 1777915028 | 22.22° C | 30% | 1002.8 hPa | 0 mm | - | 565 W/m² | - |
* Rain latest hour (hover to see other rain measurements)
** Current wind speed in m/s (hover to see current wind gust speed)